Buffalo, NY

10:45 PM EDT on May 27, 2017 (GMT -0400)
Buffalo Niagara International

Weather History for KBUF - September, 2011

Change the Weather History Date:

Sunday, September 25, 2011

  Actual Average Record
Temperature  
Mean Temperature 70 °F 59 °F  
Max Temperature 82 °F 67 °F 87 °F (2007)
Min Temperature 58 °F 50 °F 36 °F (1887)
Degree Days  
Heating Degree Days 0 7  
Month to date heating degree days 62 95  
Since 1 July heating degree days 64 122  
Cooling Degree Days 5 1  
Month to date cooling degree days 84 50  
Year to date cooling degree days 759 537  
Growing Degree Days 20 (Base 50)    
Moisture  
Dew Point 59 °F    
Average Humidity 69    
Maximum Humidity 90    
Minimum Humidity 47    
Precipitation  
Precipitation 0.00 in 0.14 in 1.47 in (2005)
Month to date precipitation 2.78 3.20  
Year to date precipitation 36.34 28.36  
Snow  
Snow 0.00 in 0.00 in 0.00 in ()
Month to date snowfall 0.0 0.0  
Since 1 July snowfall 0.0 0.0  
Since 1 September snowfall 0.0 0.0  
Snow Depth 0.00 in    
Sea Level Pressure  
Sea Level Pressure 30.06 in    
Wind  
Wind Speed 7 mph (ESE)    
Max Wind Speed 16 mph    
Max Gust Speed 20 mph    
Visibility 10 miles    
Events      
T = Trace of Precipitation, MM = Missing Value Source: NWS Daily Summary

Daily Weather History Graph

Daily Weather History Graph

Search for Another Location

Airport or City:

Trip Planner

Search our weather history database for the weather conditions in past years. The results will help you decide how hot, cold, wet, or windy it might be!

Date:

Astronomy

Sep. 25, 2011 Rise Set
Actual Time 7:05 AM EDT 7:07 PM EDT
Civil Twilight 6:36 AM EDT 7:35 PM EDT
Nautical Twilight 6:03 AM EDT 8:08 PM EDT
Astronomical Twilight 5:30 AM EDT 8:42 PM EDT
Moon 4:47 AM EDT (9/25) 5:48 PM EDT (9/25)
Length of Visible Light 12h 58m
Length of Day
12h 02m
Waning Crescent, 5% of the Moon is Illuminated
Sep 25
Waning Crescent
Sep 27
New
Oct 3
First Quarter
Oct 11
Full
Oct 19
Last Quarter

Hourly Weather History & Observations

Time (EDT) Temp. Heat Index Dew Point Humidity Pressure Visibility Wind Dir Wind Speed Gust Speed Precip Events Conditions
12:54 AM 57.9 °F - 53.1 °F 84% 30.12 in 10.0 mi East 3.5 mph - N/A   Partly Cloudy
1:54 AM 59.0 °F - 52.0 °F 78% 30.11 in 10.0 mi East 6.9 mph - N/A   Mostly Cloudy
2:54 AM 59.0 °F - 53.1 °F 81% 30.10 in 10.0 mi East 4.6 mph - N/A   Scattered Clouds
3:54 AM 57.9 °F - 54.0 °F 87% 30.09 in 10.0 mi East 4.6 mph - N/A   Scattered Clouds
4:54 AM 59.0 °F - 55.0 °F 87% 30.10 in 10.0 mi East 4.6 mph - N/A   Mostly Cloudy
5:54 AM 60.1 °F - 55.9 °F 86% 30.11 in 10.0 mi East 3.5 mph - N/A   Mostly Cloudy
6:54 AM 60.8 °F - 55.4 °F 82% 30.12 in 10.0 mi East 4.6 mph - N/A   Mostly Cloudy
7:54 AM 61.0 °F - 57.0 °F 87% 30.12 in 10.0 mi ESE 5.8 mph - N/A   Scattered Clouds
8:54 AM 62.6 °F - 57.2 °F 82% 30.13 in 10.0 mi ESE 4.6 mph - N/A   Mostly Cloudy
9:54 AM 68.0 °F - 61.0 °F 78% 30.13 in 10.0 mi ESE 6.9 mph - N/A   Mostly Cloudy
10:54 AM 73.9 °F - 62.1 °F 66% 30.11 in 10.0 mi SE 10.4 mph - N/A   Mostly Cloudy
11:16 AM - - - N/A% - - SE 10.4 mph - N/A   Mostly Cloudy
11:54 AM 77.0 °F - 62.1 °F 60% 30.09 in 10.0 mi ESE 9.2 mph - N/A   Mostly Cloudy
12:54 PM 80.1 °F 81.1 °F 61.0 °F 52% 30.07 in 10.0 mi SSE 12.7 mph 17.3 mph N/A   Mostly Cloudy
1:54 PM 81.0 °F 81.6 °F 60.1 °F 49% 30.05 in 10.0 mi SSE 9.2 mph - N/A   Scattered Clouds
2:54 PM 82.0 °F 82.4 °F 60.1 °F 47% 30.03 in 10.0 mi ESE 8.1 mph - N/A   Mostly Cloudy
3:54 PM 81.0 °F 81.9 °F 62.1 °F 52% 30.02 in 10.0 mi East 9.2 mph - N/A   Mostly Cloudy
4:54 PM 78.8 °F - 62.6 °F 57% 30.01 in 10.0 mi East 8.1 mph - N/A   Mostly Cloudy
5:54 PM 80.1 °F 81.1 °F 61.0 °F 52% 29.99 in 10.0 mi East 10.4 mph - N/A   Scattered Clouds
6:54 PM 75.9 °F - 61.0 °F 60% 29.99 in 10.0 mi ENE 6.9 mph - N/A   Mostly Cloudy
7:54 PM 72.0 °F - 63.0 °F 73% 29.99 in 10.0 mi East 8.1 mph - N/A   Mostly Cloudy
8:54 PM 69.1 °F - 62.1 °F 78% 29.99 in 10.0 mi East 6.9 mph - N/A   Mostly Cloudy
9:54 PM 70.0 °F - 62.1 °F 76% 29.98 in 10.0 mi ESE 12.7 mph - N/A   Scattered Clouds
10:54 PM 69.1 °F - 62.1 °F 78% 29.97 in 10.0 mi ESE 8.1 mph - N/A   Scattered Clouds
11:54 PM 66.9 °F - 62.1 °F 84% 29.97 in 10.0 mi East 3.5 mph - N/A   Mostly Cloudy